Watertown, SD

2:53 PM CDT on September 28, 2016 (GMT -0500)
Watertown Municipal

Weather History for KATY - November, 2012

Change the Weather History Date:

Monday, November 19, 2012

  Actual Average Record
Temperature  
Mean Temperature 40 °F 28 °F  
Max Temperature 53 °F 37 °F 65 °F (1924)
Min Temperature 26 °F 19 °F -9 °F (1914)
Degree Days  
Heating Degree Days 25 37  
Month to date heating degree days 576 607  
Since 1 July heating degree days 1464 1491  
Cooling Degree Days 0 0  
Month to date cooling degree days 0 0  
Year to date cooling degree days 788 515  
Moisture  
Dew Point 32 °F    
Average Humidity 70    
Maximum Humidity 92    
Minimum Humidity 48    
Precipitation  
Precipitation 0.00 in 0.03 in 0.73 in (1983)
Month to date precipitation 0.20 0.53  
Year to date precipitation 17.44 21.32  
Snow  
Snow 0.00 in - - ()
Month to date snowfall T  
Since 1 July snowfall 0.5  
Snow Depth 0.00 in    
Sea Level Pressure  
Sea Level Pressure 30.06 in    
Wind  
Wind Speed 8 mph (NNW)    
Max Wind Speed 17 mph    
Max Gust Speed 21 mph    
Visibility 9 miles    
Events      
T = Trace of Precipitation, MM = Missing Value Source: NWS Daily Summary

Daily Weather History Graph

Daily Weather History Graph

Search for Another Location

Airport or City:

Trip Planner

Search our weather history database for the weather conditions in past years. The results will help you decide how hot, cold, wet, or windy it might be!

Date:

Astronomy

Nov. 19, 2012 Rise Set
Actual Time 7:32 AM CST 4:55 PM CST
Civil Twilight 6:59 AM CST 5:27 PM CST
Nautical Twilight 6:24 AM CST 6:03 PM CST
Astronomical Twilight 5:49 AM CST 6:38 PM CST
Moon 12:29 PM CST (11/19) 11:31 PM CST (11/19)
Length of Visible Light 10h 27m
Length of Day
9h 23m
Waxing Crescent, 41% of the Moon is Illuminated
Nov 19
Waxing Crescent
Nov 20
First Quarter
Nov 28
Full
Dec 6
Last Quarter
Dec 13
New

Hourly Weather History & Observations

Time (CST) Temp. Windchill Dew Point Humidity Pressure Visibility Wind Dir Wind Speed Gust Speed Precip Events Conditions
12:53 AM 41.0 °F 34.7 °F 33.1 °F 73% 29.94 in 10.0 mi SSE 10.4 mph - N/A   Clear
1:53 AM 39.9 °F 32.9 °F 33.1 °F 77% 29.92 in 10.0 mi SSE 11.5 mph - N/A   Clear
2:53 AM 39.0 °F 31.4 °F 33.1 °F 79% 29.92 in 10.0 mi South 12.7 mph - N/A   Clear
3:53 AM 37.0 °F 29.8 °F 32.0 °F 82% 29.94 in 10.0 mi South 10.4 mph - N/A   Clear
4:53 AM 35.1 °F 29.3 °F 32.0 °F 89% 29.96 in 10.0 mi SSE 6.9 mph - N/A   Clear
5:53 AM 34.0 °F 29.8 °F 30.9 °F 89% 29.97 in 9.0 mi SSE 4.6 mph - N/A   Clear
6:53 AM 33.1 °F - 30.0 °F 89% 29.99 in 9.0 mi Calm Calm - N/A   Clear
7:53 AM 32.0 °F - 30.0 °F 92% 30.00 in 6.0 mi Calm Calm - N/A   Clear
8:53 AM 37.0 °F - 34.0 °F 89% 30.04 in 7.0 mi Calm Calm - N/A   Clear
9:53 AM 41.0 °F 37.1 °F 35.1 °F 79% 30.03 in 10.0 mi NNW 5.8 mph - N/A   Clear
10:53 AM 46.0 °F 41.0 °F 36.0 °F 68% 30.04 in 10.0 mi NNW 10.4 mph - N/A   Clear
11:53 AM 50.0 °F - 37.0 °F 61% 30.03 in 10.0 mi North 6.9 mph - N/A   Clear
12:53 PM 52.0 °F - 37.0 °F 57% 30.05 in 10.0 mi NNW 16.1 mph - N/A   Clear
1:53 PM 51.1 °F - 35.1 °F 54% 30.06 in 10.0 mi NNW 11.5 mph - N/A   Clear
2:53 PM 52.0 °F - 32.0 °F 47% 30.06 in 10.0 mi NNW 16.1 mph - N/A   Clear
3:53 PM 50.0 °F - 32.0 °F 50% 30.09 in 10.0 mi North 12.7 mph - N/A   Clear
4:53 PM 43.0 °F 38.2 °F 32.0 °F 65% 30.13 in 10.0 mi NNW 8.1 mph - N/A   Scattered Clouds
5:53 PM 43.0 °F 38.2 °F 33.1 °F 68% 30.14 in 10.0 mi NNW 8.1 mph - N/A   Clear
6:53 PM 36.0 °F 32.1 °F 30.0 °F 79% 30.17 in 10.0 mi North 4.6 mph - N/A   Partly Cloudy
7:53 PM 33.1 °F 26.9 °F 28.9 °F 85% 30.18 in 10.0 mi NNW 6.9 mph - N/A   Clear
8:53 PM 30.9 °F 25.2 °F 28.0 °F 89% 30.19 in 10.0 mi NNW 5.8 mph - N/A   Clear
9:53 PM 28.9 °F 21.9 °F 26.1 °F 89% 30.20 in 10.0 mi NNW 6.9 mph - N/A   Clear
10:53 PM 28.9 °F - 26.1 °F 89% 30.18 in 7.0 mi Calm Calm - N/A   Clear
11:53 PM 26.1 °F 20.5 °F 24.1 °F 92% 30.18 in 6.0 mi North 4.6 mph - N/A   Clear